Regional Weather Roundup
Issued by NWS

Home | Current Version | Previous Version | Text Only | Print | Product List | Glossary On
Versions: 1 2 3 4 5 6 7 8 9 10 11 12 13 14 15 16 17 18 19 20 21 22 23 24 25 26 27 28 29 30 31 32 33 34 35 36 37 38 39 40 41 42 43 44 45 46 47 48 49 50
000
ASUS43 KLSX 032310
RWRMO

WEATHER SUMMARY FOR MISSOURI
NATIONAL WEATHER SERVICE SPRINGFIELD MO
500 PM CST SAT DEC 03 2016

NOTE: "FAIR" INDICATES FEW OR NO CLOUDS BELOW 12,000 FEET WITH NO
       SIGNIFICANT WEATHER AND/OR OBSTRUCTIONS TO VISIBILITY.
       CURRENT SKY AND/OR WEATHER CONDITIONS ARE NOT AVAILABLE FOR
       CHILLICOTHE AND FARMINGTON.

MOZ001>031-035>038-043-044-053-054-040000-
...NORTHERN AND WESTERN MISSOURI...

CITY           SKY/WX    TMP DP  RH WIND       PRES   REMARKS
KANSAS CTY INT CLOUDY    45  29  53 E7        30.14F
KANSAS C DTWN  CLOUDY    48  30  49 E6        30.15S
LEE`S SUMMIT   CLOUDY    47  31  53 SE6       30.15F
ST JOSEPH      CLOUDY    44  30  57 E5        30.16F
CHILLICOTHE      N/A     44  32  62 E5        30.19F
KIRKSVILLE     MOCLDY    41  33  73 SE7       30.23R

$$
MOZ066>068-077>081-088>096-101>105-040000-
...SOUTHWEST MISSOURI...

CITY           SKY/WX    TMP DP  RH WIND       PRES   REMARKS
SPRINGFIELD    LGT RAIN  43  35  73 SE14      30.17S
JOPLIN         LGT RAIN  46  39  76 SE8       30.15F
BRANSON        LGT RAIN  39  37  93 E9        30.18F FOG

$$
MOZ032>034-039>042-045>050-055>058-069>072-040000-
...CENTRAL MISSOURI...

CITY           SKY/WX    TMP DP  RH WIND       PRES   REMARKS
COLUMBIA       CLOUDY    43  31  62 SE9       30.21F
JEFFERSON CITY CLOUDY    44  31  60 SE7       30.22F
ROLLA          CLOUDY    42  31  64 E7        30.21S
SEDALIA        CLOUDY    46  32  58 SE13      30.19F
WHITEMAN AFB   CLOUDY    47  31  54 SE7       30.16F
WARRENSBURG    CLOUDY    46  30  53 E7        30.16F
OSAGE BEACH    CLOUDY    46  30  53 SE7       30.21F

$$
MOZ051-052-059>065-040000-
...EAST CENTRAL MISSOURI...

CITY           SKY/WX    TMP DP  RH WIND       PRES   REMARKS
ST LOUIS INTL  CLOUDY    43  30  60 SE6       30.27F
SPIRIT OF STL  CLOUDY    41  32  70 E5        30.27F
ST CHARLES     PTCLDY    40  33  76 SE6       30.28F

$$
MOZ072>076-082>087-097>100-106>115-040000-
...SOUTH CENTRAL AND SOUTHEAST MISSOURI...

CITY           SKY/WX    TMP DP  RH WIND       PRES   REMARKS
CAPE GIRARDEAU CLOUDY    42  31  64 SE5       30.28R
FARMINGTON     CLOUDY    40  32  73 SE3       30.26R
POPLAR BLUFF   LGT RAIN  42  35  76 E5        30.27S
WEST PLAINS    LGT RAIN  40  37  89 SE3       30.23S

$$




USA.gov is the U.S. government's official web portal to all federal, state and local government web resources and services.